Wind_Speed
33 37 32 25 20 19 17 22 28 33 41 55 61 60 58 57 56 55 49 55 50 42 41 47 47 48 47 51 61 71 59 68 69 61 54 56 53 49 53 57 49 48 49 49 44 44 43 31 20 27 25 27 33 33
35 26 17 13 9 6 6 10 18 24 42 55 60 62 58 50 59 57 55 44 49 40 35 38 44 43 35 39 53 69 61 57 60 59 57 55 52 50 48 52 49 52 46 49 47 45 38 28 25 22 22 30 33 33
27 12 7 9 5 5 9 18 25 29 45 49 55 58 55 56 64 51 45 44 42 37 34 32 39 42 35 38 52 65 67 52 57 58 55 54 56 47 48 44 49 51 45 44 47 42 37 33 30 28 23 26 30 34
20 12 11 12 17 24 23 27 31 35 41 46 51 56 58 64 56 45 42 46 40 38 34 30 34 37 42 36 39 58 41 52 61 60 59 56 54 49 44 42 48 49 52 46 47 45 41 42 32 30 31 33 36 37
28 19 17 18 19 25 29 32 34 34 39 45 55 62 64 54 45 42 41 40 41 34 29 27 26 31 38 35 36 41 62 51 60 60 59 54 53 51 49 43 42 48 49 48 47 46 39 39 37 35 36 35 37 35
31 38 36 35 33 32 35 43 50 53 50 51 53 50 45 39 38 38 41 39 32 30 27 21 23 35 36 41 36 29 43 54 54 52 55 55 49 50 51 43 37 38 45 43 49 43 45 45 44 38 34 33 35 37
22 33 31 36 41 46 49 48 48 45 44 42 41 39 36 37 38 38 35 30 26 26 27 21 23 31 38 40 33 28 31 46 47 52 56 52 51 50 48 45 36 34 36 40 42 45 46 44 45 45 46 39 35 39
20 24 29 30 31 34 36 38 38 38 38 39 40 41 40 38 37 34 30 27 28 29 30 18 24 32 47 40 30 23 25 32 45 52 51 50 51 48 52 48 40 37 37 35 34 36 40 39 44 46 47 43 40 39
23 22 23 24 26 30 31 31 33 35 37 39 40 39 37 34 29 26 25 24 24 26 23 24 40 35 29 32 30 27 22 27 37 41 44 45 45 51 52 47 41 40 37 36 34 36 35 38 32 34 39 39 35 35
26 28 29 29 30 31 32 33 33 33 33 33 32 31 29 29 27 25 22 19 19 19 17 40 42 30 40 29 17 24 28 21 29 36 37 44 41 44 51 44 40 38 38 36 37 36 37 35 33 37 30 33 38 43
28 30 31 31 31 30 30 29 29 28 28 29 29 28 27 26 24 22 19 16 20 33 39 36 27 33 37 37 30 28 28 27 20 24 27 31 35 43 42 37 34 33 31 33 33 32 34 37 39 40 41 42 42 43
31 29 30 33 35 36 36 35 33 32 30 28 27 26 23 23 21 20 15 19 31 38 39 29 28 39 42 30 31 29 26 29 22 22 23 24 23 28 30 28 25 26 28 30 33 35 37 38 40 40 42 44 46 49
30 31 31 31 31 30 29 28 27 25 24 23 21 25 22 22 20 20 19 23 23 38 32 31 35 33 31 27 32 36 24 21 14 17 24 26 27 25 25 25 27 28 29 31 33 38 42 43 43 42 43 44 46 48
26 25 25 25 24 22 22 20 19 18 16 13 11 14 16 18 21 20 17 20 42 35 24 33 28 31 32 31 29 36 31 30 27 23 20 23 19 20 23 26 31 34 36 38 39 39 40 43 44 45 46 45 43 44
27 26 30 34 36 36 35 35 34 33 31 29 26 22 21 17 16 21 24 34 29 15 21 27 29 33 32 32 33 35 34 32 31 32 28 28 27 26 22 23 25 26 28 30 34 32 33 33 35 37 39 42 43 46
42 42 44 40 37 31 27 25 24 21 19 17 11 8 15 20 26 29 37 27 17 14 19 28 30 23 18 21 26 30 32 33 31 31 34 34 31 28 31 34 32 31 32 35 35 38 42 44 43 43 40 39 40 44
36 32 29 30 28 23 19 15 18 21 23 24 25 28 30 31 30 27 26 26 25 25 30 29 21 12 8 10 14 20 20 22 22 23 27 28 30 30 29 31 33 36 36 37 40 41 37 36 35 36 38 41 40 41
28 29 30 29 28 28 27 31 31 31 30 30 28 29 29 29 29 30 28 21 17 11 8 11 17 19 12 13 13 14 13 14 16 16 16 18 20 21 25 30 31 31 32 32 33 35 37 39 40 43 46 48 49 51
24 24 24 25 25 23 22 22 23 24 24 24 24 24 23 22 20 18 16 15 15 14 14 11 9 7 7 8 10 12 13 13 14 16 18 20 22 24 25 27 29 32 34 36 38 39 41 43 45 47 50 52 53 54
9 13 16 17 18 17 19 17 16 17 19 19 19 18 15 15 14 13 12 11 10 7 6 8 9 9 9 10 11 12 14 16 18 19 20 22 24 27 31 35 37 39 41 42 43 45 47 49 50 52 53 54 56 58
9 10 11 12 11 17 14 12 10 12 10 12 12 12 10 8 8 7 5 3 2 1 3 4 6 9 12 14 16 19 22 24 26 27 29 31 32 34 36 38 40 42 43 44 46 48 50 52 54 56 58 60 62 65
4 6 6 9 11 12 6 7 10 10 9 9 9 8 6 5 3 2 2 2 2 4 6 9 11 13 15 17 19 21 23 26 27 30 32 34 36 38 40 42 43 45 47 49 51 53 55 57 58 60 62 63 65 66
10 9 10 12 11 12 10 10 11 10 8 7 6 6 6 8 9 10 10 12 14 17 19 20 22 23 24 25 26 27 29 30 32 35 36 38 40 43 45 48 50 52 54 55 56 57 58 60 61 62 63 64 64 64
15 12 10 12 11 10 9 10 8 6 5 6 7 8 10 12 14 16 19 21 23 26 29 32 36 38 39 39 38 37 38 39 41 44 46 48 49 51 51 51 51 51 51 51 52 53 54 54 55 56 56 57 58 59
10 12 13 11 8 8 4 4 3 4 5 7 9 11 13 16 18 21 23 26 27 30 36 39 40 42 44 47 49 50 51 52 52 50 49 48 46 46 46 45 45 45 46 46 47 48 50 51 52 53 53 53 52 51
18 14 11 7 3 1 2 3 5 7 9 12 14 17 20 23 25 26 29 30 32 36 40 43 44 46 49 51 53 54 52 49 46 43 41 40 40 40 41 42 43 44 45 46 46 46 45 44 44 43 43 43 41 40
13 10 7 4 2 4 6 9 11 13 15 17 19 21 23 24 26 27 30 33 36 39 43 46 50 53 53 49 45 43 41 40 39 39 39 39 39 39 39 39 39 38 37 36 35 35 35 34 33 32 34 36 37 38
9 6 6 7 8 11 14 16 18 18 19 21 22 24 25 27 29 31 34 38 42 46 51 53 49 45 43 42 41 40 38 37 36 34 33 32 31 30 29 27 26 27 28 27 24 23 26 27 28 30 35 39 41 43
10 10 12 13 16 19 19 19 20 22 23 24 25 25 27 31 34 38 42 46 50 50 46 45 44 41 37 34 31 29 27 25 24 23 23 22 23 24 24 21 16 15 18 20 19 21 25 29 32 36 39 41 42 40
16 16 18 20 21 21 21 22 24 25 25 25 27 30 33 36 40 43 46 46 44 44 44 40 34 28 25 23 21 20 20 20 20 21 22 19 13 9 11 13 13 13 15 18 22 25 28 32 36 39 41 34 32 34
21 23 24 24 23 23 25 27 25 24 26 29 32 34 37 40 43 43 43 43 43 39 33 26 22 20 20 19 20 21 21 21 18 11 7 8 10 10 9 11 13 16 19 22 25 28 31 35 37 41 33 30 31 31
25 23 22 22 24 26 24 22 26 28 30 32 35 38 41 42 41 41 42 39 33 27 24 23 22 22 22 20 20 19 12 6 5 7 8 7 7 9 12 14 17 19 22 25 27 30 33 36 38 41 34 29 30 30
21 21 23 23 21 23 25 27 28 31 33 36 38 40 40 39 38 40 36 30 26 25 24 23 21 20 19 16 8 4 4 6 6 5 6 7 9 11 14 17 20 23 25 28 29 31 33 37 39 41 38 31 30 31
Wind_Direction
311 312 314 300 288 287 257 228 224 225 211 201 197 195 197 193 196 197 205 204 204 204 208 215 221 220 223 229 218 213 215 220 220 218 216 221 220 215 214 212 213 211 224 224 223 233 234 226 231 237 248 230 239 249
321 316 321 314 311 273 204 213 207 198 189 185 187 186 187 191 181 192 192 192 199 200 196 211 219 217 232 226 216 215 217 221 218 217 215 223 226 221 219 218 216 216 227 229 230 237 243 232 238 248 243 241 246 251
338 338 10 10 10 142 131 135 134 145 161 165 174 182 183 185 186 187 188 198 195 188 192 211 214 216 218 221 216 210 213 213 215 217 223 222 226 227 227 228 226 217 217 224 228 233 238 238 233 242 251 248 252 252
16 41 65 68 72 110 120 133 137 141 149 159 165 167 173 175 175 178 187 188 190 185 193 210 223 227 216 195 213 211 203 212 215 216 219 219 220 226 230 230 229 230 221 223 229 233 234 236 237 240 234 241 250 256
40 65 83 87 98 106 119 127 133 141 144 148 154 158 166 168 170 181 184 187 185 194 205 219 223 220 200 191 206 207 212 213 217 216 220 217 220 223 229 229 226 231 232 228 231 233 239 238 243 237 234 243 252 259
55 67 84 91 96 112 123 122 126 123 126 133 142 148 153 162 167 169 171 175 185 195 205 212 202 190 193 191 200 204 204 214 220 218 223 223 225 227 229 229 230 238 238 243 237 239 239 243 245 246 245 248 253 261
75 80 84 89 99 109 120 124 127 128 130 132 136 142 147 150 155 162 169 180 193 197 202 210 199 204 192 188 195 193 206 214 219 224 224 226 229 232 235 232 232 239 240 239 243 246 247 247 252 251 246 245 252 261
99 90 96 97 102 109 115 123 127 127 129 134 137 140 145 151 162 171 178 190 197 203 206 216 191 182 182 180 187 182 196 210 219 224 228 231 235 235 237 237 237 242 244 245 249 250 249 253 257 256 257 251 247 256
117 115 110 110 112 113 120 125 126 130 134 138 144 150 157 164 169 178 189 192 195 205 214 193 158 164 175 186 193 192 188 211 220 224 230 235 236 239 243 244 244 244 251 252 249 257 250 252 259 261 261 252 258 258
116 118 118 117 118 120 122 124 125 126 132 140 147 154 159 165 172 177 176 189 203 202 178 165 164 157 168 178 170 177 176 191 222 231 229 236 240 242 245 249 250 252 254 257 259 256 263 267 271 272 270 267 263 263
113 116 118 120 121 123 125 127 129 132 137 143 149 153 154 154 159 163 173 179 181 172 164 161 148 160 161 154 164 159 169 177 187 195 218 234 236 245 251 254 255 254 255 259 261 261 260 263 263 266 272 274 274 274
110 118 122 123 125 125 125 123 122 123 129 135 140 147 154 155 156 156 157 159 164 175 171 170 145 146 156 168 168 157 190 203 211 218 220 232 239 245 250 254 253 252 254 259 263 262 259 260 262 262 265 268 269 271
117 117 117 117 118 121 124 125 127 129 137 147 155 161 163 165 163 164 158 151 185 175 163 151 160 177 188 185 184 187 167 165 185 205 228 244 252 249 249 249 250 251 252 251 253 256 256 259 261 264 268 272 274 273
126 127 129 132 132 128 127 132 142 148 142 136 142 151 155 154 160 162 154 178 155 151 157 152 134 149 171 164 187 194 192 187 196 217 237 239 238 248 253 253 251 250 248 252 255 257 261 265 270 268 272 275 273 275
95 91 98 103 105 105 105 110 115 120 125 126 119 114 106 123 145 168 160 175 155 117 130 137 147 154 169 179 188 187 198 207 209 217 227 236 251 253 258 257 261 261 261 261 257 252 261 267 265 262 265 271 271 262
116 118 115 117 116 104 93 102 112 109 101 115 80 81 66 121 119 141 152 149 143 135 162 170 167 158 167 183 198 208 213 216 223 227 235 249 257 259 254 255 263 259 265 263 257 257 257 252 251 260 261 256 255 255
118 118 103 93 86 76 61 67 80 82 91 91 93 106 116 131 141 148 141 141 158 166 172 173 185 221 214 188 196 202 217 218 226 235 241 246 246 246 256 261 261 261 255 249 243 246 255 262 267 268 262 259 261 265
94 93 91 91 85 81 89 91 91 89 88 92 97 107 119 127 143 158 164 167 169 160 166 189 206 197 214 212 200 208 223 228 232 235 237 241 246 248 250 249 238 242 253 254 256 258 258 261 262 262 262 263 264 265
83 75 77 80 87 84 82 85 83 89 92 96 100 103 106 111 117 124 132 142 154 169 186 196 202 215 226 229 233 236 239 240 244 251 251 250 250 250 253 255 256 258 260 263 265 266 267 269 269 268 268 269 270 272
103 95 92 93 100 92 86 89 81 80 84 88 94 101 101 107 109 112 119 130 144 159 181 205 219 228 232 240 246 248 249 251 252 255 259 259 258 257 258 259 261 262 263 263 265 266 267 268 269 271 272 274 275 276
93 109 111 127 131 117 104 88 94 88 89 87 92 89 87 89 96 104 111 113 105 250 267 274 271 269 269 270 269 268 268 269 269 268 267 266 265 264 264 264 265 266 267 269 270 271 273 275 276 278 279 281 282 283
197 174 165 145 138 130 132 125 120 114 116 111 113 111 117 117 116 69 29 41 317 296 296 297 296 296 297 297 295 294 293 291 290 289 287 286 286 285 285 284 283 283 284 283 283 283 283 283 284 284 285 286 286 288
188 181 169 157 154 151 142 129 114 108 106 89 90 68 46 27 12 2 354 346 342 340 340 336 332 327 320 314 308 303 298 295 292 290 288 287 286 285 284 284 284 284 284 284 283 283 284 284 284 285 286 286 287 288
177 169 148 117 121 133 127 123 112 99 62 38 21 360 348 343 338 333 333 331 331 333 335 334 330 325 321 315 310 305 301 299 298 297 295 293 291 289 287 286 284 283 281 281 281 282 283 284 286 287 288 289 291 291
158 135 125 118 114 118 92 68 46 6 341 335 329 328 330 329 327 327 328 327 327 328 329 327 323 319 316 313 306 302 302 301 300 297 293 290 286 284 283 283 284 285 285 285 286 287 288 289 291 292 293 294 295 296
148 154 155 150 152 166 337 322 322 321 321 323 325 324 325 324 323 321 320 320 319 319 318 317 313 309 305 302 301 300 298 295 293 291 290 288 287 286 285 286 286 287 288 289 290 291 292 293 295 296 297 298 300 301
164 167 172 188 241 289 295 300 305 309 312 315 316 319 319 319 318 318 318 315 313 311 310 309 309 308 303 298 295 293 291 290 288 287 286 286 287 287 288 289 290 290 292 293 294 295 297 299 302 304 306 307 309 309
185 200 233 262 280 288 296 300 303 305 309 312 314 315 317 318 317 317 315 314 314 313 314 313 307 302 300 296 292 289 288 287 287 287 289 290 291 292 293 294 296 298 300 303 305 307 309 313 316 314 312 311 311 310
225 246 262 277 287 293 294 295 299 304 307 310 312 314 315 315 316 317 318 318 318 317 311 308 305 301 298 295 293 292 292 293 294 295 296 297 298 299 300 302 307 311 311 313 318 320 318 318 318 318 318 316 314 314
255 266 278 286 291 292 293 297 301 305 306 308 311 313 315 316 318 318 319 318 314 312 308 305 304 302 301 301 301 301 301 301 301 300 301 302 304 308 310 311 314 320 322 321 320 321 323 324 325 326 323 321 322 323
267 276 282 285 287 290 294 298 300 300 305 309 311 314 316 319 319 320 317 314 313 309 308 306 306 306 305 305 304 304 303 305 305 306 309 311 311 313 319 323 325 324 322 324 326 328 330 332 333 336 328 325 327 329
271 272 274 279 285 290 291 294 300 304 307 310 313 317 319 319 317 316 314 313 311 310 307 305 304 302 302 303 303 304 303 302 304 306 308 314 322 326 327 327 326 327 328 329 329 330 333 337 339 340 332 323 326 327
263 269 275 280 282 288 293 297 299 304 308 313 317 318 317 315 314 314 314 312 310 307 305 304 303 302 302 301 296 287 292 300 303 309 320 325 326 327 328 329 330 330 330 331 331 331 333 337 339 340 338 327 323 325
Height
5292 5281 5270 5261 5254 5249 5244 5246 5251 5257 5266 5281 5302 5323 5342 5359 5375 5389 5409 5424 5438 5448 5458 5466 5472 5479 5489 5494 5504 5522 5533 5541 5556 5567 5580 5584 5588 5597 5603 5611 5616 5624 5630 5633 5639 5641 5645 5655 5661 5662 5667 5666 5663 5664
5284 5273 5264 5257 5250 5246 5244 5243 5244 5246 5254 5274 5297 5320 5339 5355 5372 5389 5406 5419 5431 5442 5451 5458 5466 5475 5482 5487 5498 5511 5528 5540 5556 5563 5569 5578 5583 5590 5596 5602 5610 5615 5621 5627 5632 5636 5643 5649 5652 5654 5655 5655 5656 5657
5279 5270 5264 5258 5251 5246 5247 5247 5249 5253 5265 5282 5301 5321 5340 5355 5373 5391 5404 5417 5428 5438 5447 5454 5459 5469 5476 5480 5487 5503 5517 5532 5543 5556 5562 5568 5575 5586 5590 5597 5603 5608 5612 5617 5624 5629 5634 5639 5643 5646 5648 5648 5646 5646
5281 5272 5268 5263 5258 5255 5256 5259 5264 5270 5280 5293 5309 5326 5342 5359 5378 5393 5406 5417 5428 5437 5444 5450 5457 5463 5470 5478 5485 5500 5519 5527 5535 5542 5550 5559 5568 5578 5583 5587 5593 5601 5607 5612 5615 5621 5625 5626 5634 5636 5636 5636 5636 5636
5289 5278 5274 5272 5270 5270 5271 5275 5280 5285 5294 5304 5317 5334 5352 5369 5382 5395 5406 5417 5427 5438 5443 5447 5452 5456 5466 5474 5480 5492 5508 5520 5528 5539 5546 5553 5561 5571 5573 5580 5587 5593 5599 5605 5608 5615 5617 5621 5620 5622 5626 5628 5629 5630
5302 5293 5287 5285 5282 5282 5286 5292 5298 5306 5316 5326 5338 5351 5365 5377 5390 5400 5409 5418 5427 5434 5441 5445 5450 5454 5460 5470 5479 5489 5502 5514 5523 5536 5542 5549 5557 5563 5566 5574 5583 5588 5592 5597 5601 5602 5604 5608 5611 5614 5615 5617 5617 5619
5314 5311 5308 5307 5307 5308 5310 5314 5319 5326 5333 5343 5354 5364 5374 5385 5395 5405 5414 5422 5428 5434 5439 5443 5448 5454 5462 5471 5479 5487 5498 5510 5520 5528 5535 5542 5550 5556 5561 5566 5577 5582 5584 5588 5591 5591 5596 5599 5600 5603 5604 5605 5608 5609
5323 5323 5323 5323 5324 5326 5329 5332 5337 5342 5349 5356 5364 5373 5382 5391 5400 5407 5415 5420 5425 5430 5435 5438 5443 5449 5461 5469 5477 5488 5498 5505 5512 5523 5530 5539 5546 5550 5550 5559 5569 5573 5576 5580 5582 5584 5586 5588 5589 5591 5592 5595 5595 5596
5331 5332 5333 5334 5335 5338 5341 5344 5349 5354 5360 5366 5373 5381 5388 5395 5403 5410 5415 5420 5423 5429 5431 5435 5442 5452 5459 5470 5479 5486 5493 5500 5509 5519 5527 5532 5539 5541 5544 5551 5559 5563 5569 5572 5575 5575 5576 5578 5579 5580 5580 5581 5582 5584
5339 5340 5342 5344 5346 5349 5352 5357 5361 5366 5372 5377 5383 5389 5395 5401 5406 5411 5416 5419 5421 5424 5428 5435 5442 5449 5459 5469 5476 5483 5491 5498 5507 5517 5519 5525 5532 5533 5535 5545 5551 5555 5559 5562 5564 5566 5567 5567 5568 5569 5570 5570 5572 5572
5349 5350 5351 5354 5356 5360 5363 5367 5371 5376 5380 5385 5390 5395 5399 5404 5409 5413 5416 5418 5420 5425 5429 5435 5441 5451 5460 5468 5476 5484 5490 5497 5503 5510 5516 5519 5522 5525 5530 5537 5542 5546 5549 5553 5555 5556 5556 5558 5558 5559 5559 5559 5560 5559
5357 5358 5360 5362 5364 5367 5371 5374 5378 5382 5387 5391 5394 5399 5403 5407 5410 5414 5415 5419 5423 5429 5434 5440 5447 5456 5464 5469 5474 5482 5489 5494 5500 5507 5509 5510 5516 5521 5525 5528 5532 5535 5539 5543 5545 5545 5546 5547 5547 5547 5547 5547 5546 5546
5366 5368 5370 5371 5373 5376 5379 5382 5386 5388 5391 5394 5397 5399 5403 5408 5411 5415 5417 5424 5428 5434 5440 5447 5454 5461 5466 5470 5475 5481 5486 5491 5497 5499 5502 5506 5510 5515 5518 5520 5523 5526 5528 5530 5532 5533 5533 5533 5533 5533 5533 5533 5532 5531
5375 5377 5378 5379 5381 5384 5387 5388 5389 5392 5396 5399 5401 5403 5406 5409 5413 5418 5422 5427 5433 5441 5444 5449 5452 5459 5466 5471 5475 5480 5485 5488 5492 5496 5499 5501 5505 5507 5509 5511 5512 5514 5516 5518 5519 5520 5520 5521 5520 5520 5519 5519 5517 5516
5383 5384 5385 5387 5389 5392 5395 5397 5399 5402 5404 5405 5407 5410 5411 5414 5418 5421 5426 5430 5436 5440 5445 5451 5457 5462 5466 5470 5473 5477 5481 5484 5487 5492 5495 5498 5500 5502 5503 5503 5504 5505 5506 5507 5508 5509 5509 5508 5508 5507 5506 5505 5504 5503
5395 5397 5399 5400 5402 5404 5405 5406 5407 5409 5410 5412 5414 5415 5418 5422 5425 5429 5434 5439 5441 5445 5449 5453 5457 5463 5466 5469 5472 5475 5478 5481 5484 5486 5488 5490 5492 5493 5495 5496 5497 5498 5498 5498 5498 5498 5497 5496 5496 5495 5493 5492 5490 5490
5404 5406 5407 5408 5410 5412 5412 5414 5415 5415 5417 5418 5420 5422 5425 5430 5433 5437 5440 5445 5449 5453 5456 5458 5462 5464 5467 5468 5471 5475 5476 5479 5480 5481 5483 5483 5484 5485 5486 5486 5487 5487 5487 5487 5487 5486 5484 5483 5481 5481 5481 5479 5477 5475
5414 5417 5419 5419 5420 5420 5423 5423 5423 5423 5425 5426 5429 5433 5436 5440 5443 5446 5449 5452 5454 5457 5459 5463 5465 5466 5467 5469 5471 5472 5473 5474 5475 5476 5477 5477 5477 5477 5478 5478 5478 5479 5478 5476 5475 5474 5473 5471 5470 5469 5467 5465 5463 5460
5424 5424 5425 5426 5428 5430 5430 5431 5433 5433 5434 5436 5438 5440 5443 5445 5448 5451 5453 5456 5458 5460 5463 5464 5465 5466 5467 5468 5469 5470 5471 5471 5472 5472 5472 5472 5472 5472 5471 5470 5469 5468 5467 5466 5464 5462 5461 5459 5457 5455 5453 5450 5447 5443
5431 5432 5433 5434 5435 5436 5437 5439 5441 5442 5442 5444 5445 5447 5449 5450 5452 5454 5456 5458 5460 5462 5463 5464 5465 5466 5467 5467 5467 5468 5468 5469 5468 5468 5467 5466 5465 5465 5464 5463 5461 5459 5458 5456 5453 5451 5449 5446 5444 5441 5437 5434 5430 5426
5435 5437 5438 5439 5440 5441 5444 5445 5446 5446 5448 5448 5450 5450 5452 5454 5456 5457 5459 5460 5461 5462 5463 5463 5464 5465 5465 5465 5464 5464 5463 5463 5462 5461 5459 5458 5456 5454 5453 5451 5449 5447 5444 5441 5439 5436 5434 5430 5427 5423 5420 5416 5412 5408
5438 5439 5440 5442 5443 5444 5446 5448 5449 5450 5452 5452 5454 5455 5457 5458 5459 5460 5460 5461 5461 5462 5462 5462 5462 5462 5461 5460 5459 5458 5457 5455 5453 5451 5449 5447 5444 5442 5440 5437 5435 5432 5429 5426 5423 5419 5415 5411 5407 5403 5398 5394 5389 5385
5439 5441 5442 5443 5445 5446 5448 5449 5450 5452 5453 5454 5455 5456 5457 5457 5457 5458 5458 5458 5458 5458 5458 5458 5457 5457 5456 5454 5452 5450 5448 5445 5443 5441 5438 5435 5432 5429 5426 5422 5419 5416 5412 5408 5405 5400 5397 5393 5388 5384 5379 5375 5370 5366
5441 5442 5442 5444 5446 5448 5449 5450 5452 5453 5454 5454 5455 5455 5456 5456 5456 5455 5455 5454 5453 5452 5451 5450 5449 5447 5445 5442 5440 5438 5435 5432 5429 5426 5422 5419 5416 5412 5409 5405 5402 5398 5394 5391 5387 5383 5379 5375 5371 5367 5362 5358 5354 5349
5441 5443 5445 5447 5448 5450 5451 5452 5452 5454 5454 5454 5455 5454 5454 5454 5453 5451 5450 5449 5448 5446 5445 5443 5440 5437 5434 5431 5427 5423 5419 5415 5411 5407 5404 5400 5397 5393 5390 5386 5383 5380 5377 5374 5371 5368 5364 5360 5355 5351 5346 5341 5337 5332
5442 5444 5447 5448 5449 5451 5451 5452 5452 5452 5452 5452 5452 5451 5450 5449 5448 5447 5445 5443 5441 5439 5436 5434 5430 5426 5421 5415 5411 5405 5400 5395 5391 5388 5385 5382 5379 5377 5374 5371 5368 5365 5362 5359 5355 5352 5348 5345 5341 5337 5332 5327 5322 5318
5443 5445 5447 5448 5449 5450 5450 5451 5451 5451 5450 5449 5448 5447 5445 5444 5442 5441 5438 5435 5432 5429 5425 5421 5415 5410 5403 5397 5391 5387 5383 5380 5377 5374 5371 5369 5366 5363 5361 5358 5355 5352 5349 5346 5343 5340 5337 5333 5329 5325 5320 5316 5310 5305
5443 5444 5446 5447 5448 5448 5448 5448 5447 5447 5445 5444 5443 5441 5439 5436 5434 5431 5427 5423 5419 5415 5410 5404 5397 5391 5385 5380 5376 5372 5368 5366 5363 5361 5359 5356 5354 5351 5349 5347 5344 5342 5339 5336 5333 5330 5327 5324 5320 5316 5311 5306 5300 5294
5442 5443 5444 5444 5445 5444 5444 5443 5442 5441 5439 5437 5435 5432 5429 5426 5423 5419 5414 5410 5404 5398 5392 5385 5380 5374 5369 5365 5362 5359 5357 5355 5353 5351 5349 5347 5345 5343 5341 5338 5336 5334 5332 5330 5327 5325 5321 5317 5313 5307 5301 5295 5288 5282
5438 5439 5440 5440 5440 5439 5438 5437 5435 5433 5431 5428 5426 5422 5419 5415 5411 5406 5401 5395 5389 5383 5376 5370 5365 5362 5359 5356 5353 5351 5349 5347 5346 5344 5342 5340 5338 5337 5335 5334 5332 5330 5328 5326 5323 5319 5315 5310 5304 5298 5290 5284 5278 5273
5434 5434 5434 5434 5433 5432 5431 5429 5427 5424 5422 5419 5416 5413 5409 5404 5398 5393 5387 5381 5375 5369 5364 5360 5357 5354 5352 5349 5347 5345 5343 5341 5338 5337 5336 5335 5334 5333 5332 5331 5329 5327 5324 5321 5317 5313 5308 5302 5296 5289 5281 5276 5271 5266
5428 5428 5428 5427 5426 5425 5423 5421 5419 5416 5414 5411 5407 5402 5397 5391 5386 5380 5375 5368 5363 5359 5355 5353 5350 5347 5345 5342 5340 5338 5336 5336 5335 5335 5334 5333 5332 5331 5329 5327 5325 5322 5319 5315 5311 5306 5301 5295 5288 5281 5274 5269 5265 5260
5422 5422 5421 5420 5418 5417 5415 5414 5411 5408 5404 5400 5395 5390 5384 5379 5374 5369 5362 5357 5353 5350 5347 5344 5341 5339 5337 5335 5334 5334 5334 5333 5333 5332 5332 5331 5330 5328 5326 5324 5321 5317 5313 5309 5304 5299 5294 5289 5282 5275 5268 5263 5258 5253